| time (UTC) | temp F | wind direction | speed MPH | gust MPH | rain 1hr in | rain 24hr in | rain mn in | humidity % | barometer mb |
| 20260503005108 | 50 | 205 | 2.0 | 4.0 | 0.00 | 0.28 | 0.00 | 89 | 1016.1 |
| 20260503004103 | 50 | 191 | 5.0 | 7.0 | 0.00 | 0.28 | 0.00 | 89 | 1016.2 |
| 20260503003057 | 50 | 220 | 2.0 | 4.0 | 0.00 | 0.28 | 0.00 | 89 | 1016.1 |
| 20260503002052 | 50 | 185 | 2.0 | 4.0 | 0.00 | 0.28 | 0.00 | 89 | 1016.1 |
| 20260503001048 | 50 | 210 | 2.0 | 4.0 | 0.00 | 0.28 | 0.00 | 89 | 1016.2 |
| 20260503000042 | 50 | 203 | 3.0 | 6.0 | 0.00 | 0.28 | 0.00 | 90 | 1016.2 |
| 20260502235037 | 51 | 221 | 1.0 | 2.0 | 0.00 | 0.28 | 0.00 | 90 | 1016.4 |
| 20260502234033 | 51 | 234 | 3.0 | 4.0 | 0.00 | 0.28 | 0.00 | 90 | 1016.3 |
| 20260502233028 | 51 | 217 | 2.0 | 4.0 | 0.00 | 0.28 | 0.00 | 89 | 1016.4 |
| 20260502232022 | 52 | 241 | 1.0 | 4.0 | 0.00 | 0.28 | 0.00 | 88 | 1016.3 |
| 20260502231018 | 52 | 215 | 2.0 | 4.0 | 0.00 | 0.28 | 0.00 | 87 | 1016.2 |
| 20260502230112 | 52 | 194 | 2.0 | 4.0 | 0.00 | 0.28 | 0.00 | 87 | 1016.2 |
| 20260502225108 | 52 | 190 | 1.0 | 2.0 | 0.00 | 0.28 | 0.00 | 88 | 1016.3 |
| 20260502224102 | 52 | 192 | 1.0 | 2.0 | 0.00 | 0.28 | 0.00 | 88 | 1016.2 |
| 20260502223057 | 52 | 149 | 1.0 | 4.0 | 0.00 | 0.28 | 0.00 | 88 | 1016.3 |
| 20260502222112 | 52 | 154 | 2.0 | 4.0 | 0.00 | 0.28 | 0.00 | 87 | 1016.2 |
| 20260502221047 | 52 | 136 | 4.0 | 7.0 | 0.00 | 0.28 | 0.00 | 87 | 1016.0 |
| 20260502215037 | 52 | 131 | 4.0 | 9.0 | 0.00 | 0.28 | 0.28 | 87 | 1016.2 |
| 20260502214032 | 52 | 115 | 4.0 | 8.0 | 0.00 | 0.28 | 0.28 | 88 | 1016.2 |
| 20260502213027 | 53 | 142 | 3.0 | 4.0 | 0.00 | 0.28 | 0.28 | 87 | 1016.3 |
| 20260502212022 | 53 | 119 | 4.0 | 6.0 | 0.00 | 0.28 | 0.28 | 87 | 1016.3 |
| 20260502211038 | 53 | 161 | 3.0 | 6.0 | 0.00 | 0.28 | 0.28 | 87 | 1016.4 |
| 20260502210132 | 53 | 158 | 3.0 | 6.0 | 0.00 | 0.28 | 0.28 | 87 | 1016.3 |
| 20260502205107 | 53 | 151 | 4.0 | 6.0 | 0.00 | 0.28 | 0.28 | 88 | 1016.4 |
| 20260502204102 | 53 | 140 | 4.0 | 6.0 | 0.00 | 0.28 | 0.28 | 88 | 1016.3 |
| 20260502203057 | 53 | 150 | 2.0 | 4.0 | 0.00 | 0.28 | 0.28 | 89 | 1016.2 |
| 20260502202052 | 53 | 123 | 0.0 | 2.0 | 0.00 | 0.28 | 0.28 | 89 | 1016.1 |
| 20260502201047 | 53 | 124 | 1.0 | 2.0 | 0.00 | 0.28 | 0.28 | 89 | 1016.0 |
| 20260502195037 | 53 | 130 | 1.0 | 2.0 | 0.00 | 0.28 | 0.28 | 88 | 1015.8 |
| 20260502194053 | 53 | 113 | 1.0 | 4.0 | 0.00 | 0.28 | 0.28 | 88 | 1015.8 |
| 20260502193127 | 53 | 110 | 2.0 | 4.0 | 0.00 | 0.28 | 0.28 | 88 | 1015.8 |
| 20260502192022 | 54 | 103 | 0.0 | 4.0 | 0.01 | 0.28 | 0.28 | 89 | 1015.8 |
| 20260502191017 | 54 | 135 | 1.0 | 4.0 | 0.02 | 0.28 | 0.28 | 88 | 1015.7 |
| 20260502190112 | 54 | 118 | 3.0 | 4.0 | 0.02 | 0.28 | 0.28 | 87 | 1015.6 |
| 20260502185107 | 54 | 101 | 1.0 | 4.0 | 0.02 | 0.28 | 0.28 | 88 | 1015.6 |
| 20260502184102 | 54 | 78 | 2.0 | 4.0 | 0.02 | 0.28 | 0.28 | 87 | 1015.6 |
| 20260502183058 | 54 | 205 | 2.0 | 4.0 | 0.02 | 0.28 | 0.28 | 85 | 1015.9 |
| 20260502182113 | 55 | 196 | 6.0 | 8.0 | 0.01 | 0.27 | 0.27 | 81 | 1016.0 |
| 20260502181047 | 55 | 236 | 0.0 | 2.0 | 0.00 | 0.26 | 0.26 | 79 | 1015.4 |
| 20260502170113 | 54 | 179 | 4.0 | 7.0 | 0.05 | 0.26 | 0.26 | 84 | 1016.0 |
| 20260502164103 | 55 | 212 | 7.0 | 9.0 | 0.05 | 0.22 | 0.22 | 80 | 1016.1 |
| 20260502163118 | 54 | 165 | 4.0 | 6.0 | 0.04 | 0.21 | 0.21 | 80 | 1015.9 |
| 20260502162053 | 54 | 203 | 1.0 | 4.0 | 0.04 | 0.21 | 0.21 | 79 | 1015.8 |
| 20260502161048 | 55 | 215 | 2.0 | 7.0 | 0.04 | 0.21 | 0.21 | 78 | 1015.8 |
| 20260502152023 | 59 | 210 | 9.0 | 14.0 | 0.00 | 0.18 | 0.18 | 72 | 1015.9 |
| 20260502151019 | 59 | 205 | 9.0 | 14.0 | 0.00 | 0.18 | 0.18 | 74 | 1015.9 |
| 20260502150154 | 59 | 183 | 9.0 | 14.0 | 0.00 | 0.18 | 0.18 | 74 | 1016.1 |
| 20260502130112 | 54 | 193 | 18.0 | 27.0 | 0.01 | 0.11 | 0.11 | 79 | 1018.3 |
| 20260502123057 | 56 | 178 | 9.0 | 15.0 | 0.04 | 0.09 | 0.09 | 85 | 1017.6 |
| 20260502122052 | 55 | 190 | 6.0 | 11.0 | 0.05 | 0.09 | 0.09 | 87 | 1017.6 |
| 20260502121047 | 55 | 211 | 6.0 | 11.0 | 0.09 | 0.09 | 0.09 | 87 | 1018.0 |
| 20260502115037 | 54 | 245 | 4.0 | 7.0 | 0.09 | 0.09 | 0.09 | 90 | 1018.3 |
| 20260502114032 | 54 | 247 | 5.0 | 9.0 | 0.09 | 0.09 | 0.09 | 89 | 1018.4 |
| 20260502113028 | 55 | 213 | 10.0 | 17.0 | 0.06 | 0.06 | 0.06 | 86 | 1018.6 |
| 20260502112044 | 57 | 207 | 13.0 | 21.0 | 0.05 | 0.05 | 0.05 | 81 | 1018.3 |
| 20260502111017 | 60 | 189 | 10.0 | 20.0 | 0.00 | 0.00 | 0.00 | 73 | 1017.5 |
| 20260502110113 | 60 | 204 | 10.0 | 15.0 | 0.00 | 0.00 | 0.00 | 73 | 1017.2 |
| 20260502105107 | 61 | 161 | 13.0 | 25.0 | 0.00 | 0.00 | 0.00 | 71 | 1017.3 |
| 20260502104123 | 61 | 200 | 10.0 | 16.0 | 0.00 | 0.00 | 0.00 | 71 | 1017.7 |
| 20260502103058 | 60 | 167 | 11.0 | 18.0 | 0.00 | 0.00 | 0.00 | 72 | 1018.0 |
| 20260502102053 | 60 | 174 | 12.0 | 24.0 | 0.00 | 0.00 | 0.00 | 71 | 1018.1 |
| 20260502101109 | 60 | 173 | 10.0 | 22.0 | 0.00 | 0.00 | 0.00 | 70 | 1018.4 |
| 20260502100104 | 60 | 180 | 10.0 | 15.0 | 0.00 | 0.00 | 0.00 | 70 | 1018.5 |
| 20260502091018 | 58 | 164 | 8.0 | 11.0 | 0.00 | 0.00 | 0.00 | 81 | 1018.5 |
| 20260502090114 | 58 | 172 | 6.0 | 14.0 | 0.00 | 0.00 | 0.00 | 83 | 1018.8 |
| 20260502071019 | 58 | 167 | 7.0 | 13.0 | 0.00 | 0.00 | 0.00 | 77 | 1018.8 |
| 20260502070114 | 58 | 167 | 8.0 | 15.0 | 0.00 | 0.00 | 0.00 | 77 | 1018.8 |
| 20260502065108 | 57 | 129 | 7.0 | 17.0 | 0.00 | 0.00 | 0.00 | 77 | 1018.8 |
| 20260502064104 | 57 | 119 | 8.0 | 15.0 | 0.00 | 0.00 | 0.00 | 77 | 1018.5 |
| 20260502063058 | 57 | 149 | 8.0 | 15.0 | 0.00 | 0.00 | 0.00 | 77 | 1018.6 |
| 20260502062113 | 57 | 138 | 7.0 | 14.0 | 0.00 | 0.00 | 0.00 | 76 | 1018.7 |
| 20260502061129 | 57 | 149 | 10.0 | 20.0 | 0.00 | 0.00 | 0.00 | 76 | 1018.7 |
| 20260502060044 | 57 | 174 | 7.0 | 17.0 | 0.00 | 0.00 | 0.00 | 76 | 1018.7 |
| 20260502055039 | 57 | 146 | 7.0 | 16.0 | 0.00 | 0.00 | 0.00 | 76 | 1018.5 |
| 20260502054034 | 57 | 155 | 10.0 | 16.0 | 0.00 | 0.00 | 0.00 | 75 | 1018.5 |
| 20260502053028 | 57 | 162 | 7.0 | 16.0 | 0.00 | 0.00 | 0.00 | 76 | 1018.4 |
| 20260502052023 | 57 | 127 | 7.0 | 13.0 | 0.00 | 0.00 | 0.00 | 75 | 1018.6 |
| 20260502051018 | 57 | 186 | 7.0 | 15.0 | 0.00 | 0.00 | 0.00 | 75 | 1018.6 |
| 20260502050115 | 57 | 149 | 7.0 | 14.0 | 0.00 | 0.00 | 0.00 | 75 | 1018.5 |
| 20260502045150 | 57 | 96 | 7.0 | 13.0 | 0.00 | 0.00 | 0.00 | 75 | 1018.7 |
| 20260502044105 | 57 | 121 | 6.0 | 11.0 | 0.00 | 0.00 | 0.00 | 75 | 1018.7 |
| 20260502043058 | 57 | 134 | 5.0 | 11.0 | 0.00 | 0.00 | 0.00 | 75 | 1018.9 |
| 20260502042113 | 57 | 140 | 3.0 | 9.0 | 0.00 | 0.00 | 0.00 | 75 | 1019.0 |
| 20260502041048 | 57 | 122 | 5.0 | 8.0 | 0.00 | 0.00 | 0.00 | 75 | 1018.9 |
| 20260502040105 | 58 | 135 | 5.0 | 9.0 | 0.00 | 0.00 | 0.00 | 75 | 1018.9 |
| 20260502035058 | 58 | 153 | 5.0 | 11.0 | 0.00 | 0.00 | 0.00 | 75 | 1019.1 |
| 20260502034033 | 58 | 200 | 5.0 | 9.0 | 0.00 | 0.00 | 0.00 | 75 | 1019.1 |
| 20260502033029 | 57 | 153 | 4.0 | 7.0 | 0.00 | 0.00 | 0.00 | 76 | 1019.3 |
| 20260502032024 | 57 | 191 | 4.0 | 8.0 | 0.00 | 0.00 | 0.00 | 76 | 1019.2 |
| 20260502031018 | 57 | 152 | 2.0 | 4.0 | 0.00 | 0.00 | 0.00 | 77 | 1019.2 |
| 20260502030113 | 57 | 198 | 2.0 | 4.0 | 0.00 | 0.00 | 0.00 | 77 | 1019.0 |
| 20260502025108 | 57 | 70 | 1.0 | 6.0 | 0.00 | 0.00 | 0.00 | 77 | 1019.0 |
| 20260502024123 | 57 | 113 | 0.0 | 2.0 | 0.00 | 0.00 | 0.00 | 76 | 1019.1 |
| 20260502023059 | 57 | 124 | 0.0 | 2.0 | 0.00 | 0.00 | 0.00 | 76 | 1019.2 |
| 20260502022053 | 57 | 135 | 2.0 | 4.0 | 0.00 | 0.00 | 0.00 | 76 | 1019.2 |
| 20260502021049 | 57 | 209 | 2.0 | 4.0 | 0.00 | 0.00 | 0.00 | 76 | 1019.2 |
| 20260502020045 | 57 | 214 | 1.0 | 7.0 | 0.00 | 0.00 | 0.00 | 75 | 1019.3 |
| 20260502015038 | 57 | 140 | 1.0 | 6.0 | 0.00 | 0.00 | 0.00 | 76 | 1019.3 |
| 20260502014033 | 56 | 0.0 | 0.0 | 0.00 | 0.00 | 0.00 | 78 | 1019.5 | |
| 20260502013029 | 57 | 203 | 0.0 | 2.0 | 0.00 | 0.00 | 0.00 | 77 | 1019.5 |
| 20260502012023 | 57 | 0.0 | 2.0 | 0.00 | 0.00 | 0.00 | 77 | 1019.5 | |
| 20260502011019 | 57 | 0.0 | 2.0 | 0.00 | 0.00 | 0.00 | 76 | 1019.5 | |
| 20260502010114 | 57 | 250 | 1.0 | 4.0 | 0.00 | 0.00 | 0.00 | 75 | 1019.7 |